Weather History for KJMS - March, 2013

Change the Weather History Date:

Wednesday, March 20, 2013

  Actual Average Record
Temperature  
Mean Temperature 4 °F 29 °F  
Max Temperature 15 °F 39 °F 66 °F (1926)
Min Temperature -8 °F 20 °F -10 °F (1901)
Degree Days  
Heating Degree Days 61 36  
Month to date heating degree days 1021 802  
Since 1 July heating degree days 7768 7561  
Cooling Degree Days 0 0  
Month to date cooling degree days 0 0  
Year to date cooling degree days 0 0  
Moisture  
Dew Point -3 °F    
Average Humidity 71    
Maximum Humidity 83    
Minimum Humidity 59    
Precipitation  
Precipitation 0.00 in 0.03 in 0.38 in (1982)
Month to date precipitation 0.27 0.50  
Year to date precipitation 0.76 1.35  
Sea Level Pressure  
Sea Level Pressure 30.38 in    
Wind  
Wind Speed 7 mph (NW)    
Max Wind Speed 18 mph    
Max Gust Speed 21 mph    
Visibility 10 miles    
Events      
T = Trace of Precipitation, MM = Missing Value Source: NWS Daily Summary

Daily Weather History Graph

Daily Weather History Graph

Search for Another Location

Airport or City:

Trip Planner

Search our weather history database for the weather conditions in past years. The results will help you decide how hot, cold, wet, or windy it might be!

Date:

Astronomy

Mar. 20, 2013 Rise Set
Actual Time 7:37 AM CDT 7:47 PM CDT
Civil Twilight 7:06 AM CDT 8:18 PM CDT
Nautical Twilight 6:31 AM CDT 8:53 PM CDT
Astronomical Twilight 5:54 AM CDT 9:30 PM CDT
Moon 1:03 PM CDT (3/20) 3:38 AM CDT (3/20)
Length of Visible Light 13h 11m
Length of Day
12h 10m
First Quarter, 59% of the Moon is Illuminated
Mar 20
First Quarter
Mar 27
Full
Apr 2
Last Quarter
Apr 10
New
Apr 18
First Quarter

Hourly Weather History & Observations

Time (CDT) Temp. Windchill Dew Point Humidity Pressure Visibility Wind Dir Wind Speed Gust Speed Precip Events Conditions
12:56 AM 3.0 °F -15.5 °F -2.9 °F 76% 30.45 in 10.0 mi NW 15.0 mph - N/A   Clear
1:56 AM 3.0 °F -15.5 °F -2.9 °F 76% 30.45 in 10.0 mi NW 15.0 mph - N/A   Clear
2:56 AM 1.9 °F -18.1 °F -4.0 °F 76% 30.45 in 10.0 mi NW 17.3 mph - N/A   Clear
3:56 AM 1.0 °F -18.7 °F -5.1 °F 75% 30.44 in 10.0 mi NW 16.1 mph - N/A   Clear
4:56 AM -0.9 °F -12.7 °F -6.0 °F 79% 30.45 in 10.0 mi WNW 5.8 mph - N/A   Clear
5:56 AM -2.0 °F -15.4 °F -7.1 °F 79% 30.45 in 10.0 mi WNW 6.9 mph - N/A   Clear
6:56 AM -4.0 °F -14.6 °F -9.0 °F 79% 30.45 in 10.0 mi WNW 4.6 mph - N/A   Clear
7:56 AM -5.1 °F -20.4 °F -9.9 °F 80% 30.46 in 10.0 mi WNW 8.1 mph - N/A   Clear
8:56 AM -2.9 °F -17.7 °F -9.0 °F 75% 30.45 in 10.0 mi WNW 8.1 mph - N/A   Clear
9:56 AM -0.9 °F -12.7 °F -7.1 °F 75% 30.43 in 10.0 mi WNW 5.8 mph - N/A   Clear
10:56 AM 5.0 °F -8.1 °F -2.0 °F 73% 30.43 in 10.0 mi NNW 8.1 mph - N/A   Clear
11:56 AM 7.0 °F -6.6 °F -0.0 °F 73% 30.42 in 10.0 mi NNW 9.2 mph - 0.01 in   Clear
12:56 PM 9.0 °F -4.2 °F 1.9 °F 73% 30.39 in 10.0 mi NW 9.2 mph - 0.00 in   Clear
1:56 PM 10.9 °F -1.8 °F 3.0 °F 70% 30.37 in 10.0 mi NNW 9.2 mph - 0.00 in   Clear
2:56 PM 14.0 °F 3.9 °F 3.0 °F 62% 30.34 in 10.0 mi NNW 6.9 mph - 0.00 in   Clear
3:56 PM 14.0 °F 5.1 °F 3.0 °F 62% 30.32 in 10.0 mi NNW 5.8 mph - N/A   Clear
4:56 PM 15.1 °F 5.2 °F 3.9 °F 61% 30.31 in 10.0 mi North 6.9 mph - N/A   Clear
5:56 PM 14.0 °F 5.1 °F 3.9 °F 64% 30.31 in 10.0 mi NNE 5.8 mph - N/A   Clear
6:56 PM 12.0 °F 2.7 °F 1.9 °F 64% 30.30 in 10.0 mi North 5.8 mph - N/A   Clear
7:56 PM 6.1 °F -2.8 °F -2.0 °F 69% 30.29 in 10.0 mi NE 4.6 mph - N/A   Clear
8:56 PM 3.9 °F - -2.0 °F 76% 30.29 in 10.0 mi Calm Calm - N/A   Clear
9:56 PM 1.9 °F -5.6 °F -4.0 °F 76% 30.28 in 10.0 mi WNW 3.5 mph - N/A   Clear
10:56 PM -0.9 °F - -6.0 °F 79% 30.27 in 10.0 mi Calm Calm - N/A   Clear
11:56 PM -7.1 °F - -11.0 °F 83% 30.25 in 10.0 mi Calm Calm - N/A   Clear